Weather Roundup
Issued by NWS

Home | Current Version | Previous Version | Text Only | Print | Product List | Glossary On
Versions: 1 2 3 4 5 6 7 8 9 10 11 12 13 14 15 16 17 18 19 20 21 22 23 24 25 26 27 28 29 30 31 32 33 34 35 36 37 38 39 40 41 42 43 44 45 46 47 48 49 50
000
NZUS93 KARX 231910
HRRWXR

CURRENT HOURLY OBSERVATIONS ACROSS
MUCH OF THE UPPER MISSISSIPPI VALLEY
NATIONAL WEATHER SERVICE LA CROSSE WI
200 PM CDT WED AUG 23 2017


...SOUTHEAST MINNESOTA...


CITY           SKY/WX    TMP DP  RH WIND       PRES   REMARKS
ROCHESTER      MOSUNNY   72  54  53 NW13G23   30.10F
ROCHESTER/MAYO FAIR      72  49  43 NW13G22   30.10S
WINONA         SUNNY     73  54  49 NW9G16    30.08S
AUSTIN         SUNNY     72  48  43 NW13      30.11S
ALBERT LEA     SUNNY     75  54  46 NW7       30.11F
DODGE CENTER   MOSUNNY   72  52  49 W9        30.10F
PRESTON        SUNNY     71  49  46 NW16G22   30.10S
OWATONNA       SUNNY     73  54  49 NW12      30.10F
FARIBAULT      MOSUNNY   73  54  49 NW8       30.10F
$$

...ELSEWHERE IN MINNESOTA...


CITY           SKY/WX    TMP DP  RH WIND       PRES   REMARKS
MINNEAPOLIS    MOSUNNY   75  52  44 NW12      30.08F
INTNL FALLS    MOSUNNY   64  48  56 VRB6      30.09F
DULUTH         PTSUNNY   64  47  53 N12       30.07F
RED WING       MOSUNNY   73  48  40 NW8G16    30.07F
REDWOOD FALLS  SUNNY     76  48  37 CALM      30.09F
MANKATO        SUNNY     73  49  42 NW9       30.11F
WORTHINGTON    MOSUNNY   73  50  44 NW7       30.12F
FAIRMONT       SUNNY     74  48  39 VRB3      30.12F
$$

...SOUTHWEST WISCONSIN...


CITY           SKY/WX    TMP DP  RH WIND       PRES   REMARKS
LA CROSSE      MOSUNNY   77  53  43 NW12      30.07F
PRAIRIE DU CHI PTSUNNY   73  45  36 NW12      30.07S
BOSCOBEL       MOSUNNY   77  50  38 NW7       30.07F
LONE ROCK      MOSUNNY   71  53  52 NW13      30.06F
PLATTEVILLE    MOSUNNY   74  53  47 W10G16    30.08S
FORT MC COY    PTSUNNY   71  51  48 NW12G20   30.08S
CAMP DOUGLAS   PTSUNNY   73  52  46 W17       30.06S
MAUSTON-NEW LI CLOUDY    71  53  52 W10G21    30.05S
VIROQUA        MOCLDY    70  53  55 NW13      30.09S
WIS DELLS      PTSUNNY   70  46  42 NW10      30.06S
$$

...ELSEWHERE IN WISCONSIN...


CITY           SKY/WX    TMP DP  RH WIND       PRES   REMARKS
MILWAUKEE      PTSUNNY   73  54  51 N10       30.03S
MADISON        PTSUNNY   72  51  47 NW10      30.05S
GREEN BAY      MOSUNNY   71  54  54 NW8       30.01S
EAU CLAIRE     PTSUNNY   70  50  49 N9        30.07S
BLACK RVR FLS  FAIR      73  48  41 NW7       30.06S
MEDFORD        MOSUNNY   65  49  54 NW9       30.06S
WAUSAU         MOSUNNY   70  47  43 NW12G21   30.03F
WIS RAPIDS     MOSUNNY   71  50  47 NW15      30.06F
MARSHFIELD     PTSUNNY   66  48  52 NW12      30.05F
RICE LAKE      MOSUNNY   67  49  51 NW6       30.09F
$$

...NORTHEAST IOWA...


CITY           SKY/WX    TMP DP  RH WIND       PRES   REMARKS
WATERLOO       MOSUNNY   76  48  37 NW10      30.09F
DUBUQUE        MOSUNNY   72  51  47 N15G22    30.09S
DECORAH        PTSUNNY   73  50  43 NW14      30.09S
MASON CITY     SUNNY     75  49  39 NW13      30.13F
CHARLES CITY   SUNNY     73  50  43 NW12      30.12S
OELWEIN        MOSUNNY   73  52  46 NW9G17    30.11S
$$

...ELSEWHERE IN IOWA...


CITY           SKY/WX    TMP DP  RH WIND       PRES   REMARKS
DES MOINES     MOSUNNY   79  49  34 W10       30.12F
IOWA CITY      LGT RAIN  78  48  34 NW10G22   30.11F
FORT DODGE     SUNNY     76  54  46 W7        30.13
MARSHALLTOWN   SUNNY     75  50  41 NW6       30.12S
CEDAR RAPIDS   MOSUNNY   77  49  37 NW12      30.10F
$$

...NORTHERN ILLINOIS...


CITY           SKY/WX    TMP DP  RH WIND       PRES   REMARKS
CHICAGO-OHARE  MOSUNNY   77  49  37 NW10      30.03S
CHICAGO-MIDWAY MOSUNNY   78  50  37 W13G23    30.02F
MOLINE         MOSUNNY   79  49  34 W9G20     30.08F
ROCKFORD       MOSUNNY   76  51  41 NW14      30.06F
PEORIA         MOSUNNY   77  49  37 W13G20    30.08F
$$

NOTE: "FAIR" INDICATES FEW OR NO CLOUDS BELOW 12,000 FEET WITH NO
SIGNIFICANT WEATHER AND/OR OBSTRUCTIONS TO VISIBILITY. WIND
SPEEDS ARE IN MILES-PER-HOUR.




USA.gov is the U.S. government's official web portal to all federal, state and local government web resources and services.